Location: Newark
(45.9494°N, 4.9881°E)
Time: 15:16:27
(UTC+00:00)

Envisat - Visible Passes

Search period start: 17 September 2019 00:00
Search period end: 27 September 2019 00:00
Orbit: 764 x 766 km, 98.1° (Epoch: 17 September)

Date Brightness Start Highest point End Pass type
(mag) Time Alt. Az. Time Alt. Az. Time Alt. Az.
18 Sep 5.8 19:00:20 10° SW 19:04:01 20° W 19:07:44 10° NW visible
19 Sep 4.5 18:22:10 10° SSW 18:26:58 41° W 18:31:47 10° NNW visible
20 Sep 6.2 19:28:11 10° WSW 19:29:52 12° W 19:31:33 10° WNW visible
21 Sep 5.4 18:48:31 10° SSW 18:52:39 25° W 18:56:49 10° NW visible
22 Sep 4.0 18:10:43 10° S 18:15:39 52° W 18:20:38 10° NNW visible
23 Sep 6.0 19:15:39 10° WSW 19:18:27 15° W 19:21:16 10° NW visible
24 Sep 5.0 18:36:50 10° SSW 18:41:18 31° W 18:45:48 10° NNW visible
25 Sep 3.6 17:59:20 10° S 18:04:22 65° WSW 18:09:27 10° NNW visible
26 Sep 5.9 19:03:34 10° SW 19:07:04 18° W 19:10:34 10° NW visible
